Погода в Перми

Погода в Перми : погода сейчас, прогноз погоды и архив. Всё, что Вы хотите узнать о погоде в Перми!

Хотите узнать прогноз погоды в Перми? Тогда Вам сюда: Погода в Перми

Поиск расширенной информации на нашем сайте:

Другие новости

Новости СМИ2

Главная страница сайта

Новости сайта

03.07.2017

Напоминаем, что на нашем специализированном сайте Метеоцентр.Азия вы можете получить высокодетализированные автоматические прогнозы погоды по пунктам России, СНГ и мира в авиационном формате (включающие направление и скорость ветра, видимость, явления погоды, количество и форму облачности, нижнюю и верхнюю границу облачности).


Погода в Перми - сегодня

Время (UTC), дата Ветер
(°,м/с) 
Видим.   Явления Облачность Т
(°С)
Тd
(°С)
f(%) Тe
(°С)
Pmin
(гПа)
dP
(гПа)
Po
(мм)
O2
(г/м3)
Тmin Tmax R s Состояние
почвы
00 19.09.17 130 (ЮВ) 10 км  слаб. дождь  10/10 600 м 
[Ns]
+7.2 +5.6 90 +7  1019.5  0.1  749  293           
03 19.09.17 120 (ЮВ) 20000 м  {дождь}  10/5 1000 м средняя 
[Sc|As trans]
+7.5 +5.8 89 +7  1017.7  -1.8  748  292  +5.9    0.3    влажная 
06 19.09.17 130 (ЮВ) 20000 м  {дождь}  10/5 300 м средняя 
[Sc|As trans]
+10.9 +8.1 83 +11  1015.1  -2.3  746  288           
09 19.09.17 120 (ЮВ) 20000 м    10/3 600 м средняя 
[Sc|Ac As]
+14.3 +9.5 73 +15  1013.3  -1.5  745  283           
12 19.09.17 160 (Ю) 20000 м    10/0 верхняя 
[Cs]
+18.6 +11.5 63 +22  1010.6  -2.4  743  278           
15 19.09.17 180 (Ю) 20000 м  гроза без осадков{ливн. осадки}  10/10 600 м кучево-дожд. 
[Cb cap]
+16.2 +13 81 +23  1009.8  -0.9  742  280    +18.6  0.5     
18 19.09.17 190 (Ю) 20000 м  {гроза, ливн. осадки}  ясно 
+16.6 +13.2 80 +23  1008.5  -1.3  741  279           
21 19.09.17 210 (ЮЗ) 20000 м    ясно 
+15.3 +11.9 80 +20  1008.9  0.3  742  281           
00 20.09.17 250 (З) 20000 м    8/8 2000 м средняя 
[Ac trans]
+13.8 +10.9 83 +17  1010.5  1.4  743  283           
03 20.09.17 250 (З) 20000 м    9/9 2000 м средняя 
[Ac trans]
+13.1 +9.6 79 +15  1012  1.4  744  284  +13.1    0.3    влажная 
06 20.09.17 250 (З) 20000 м    10/8 1000 м средняя 
[Sc|As op]
+13.4 +8.9 74 +13  1013.8  1.8  745  285  +13.1         
09 20.09.17 240 (ЮЗ) 20000 м    10/10 1000 м 
[Sc]
+14 +8.6 70 +14  1014.9  1.1  746  284           
12 20.09.17 260 (З) 2{10}  10 км  слаб. дождь  10/8 600 м средняя 
[Sc|As op]
+12.8 +9.5 80 +14  1016.3  1.3  747  286           
15 20.09.17 260 (З) 20000 м  {дождь}  10/8 600 м средняя 
[Sc|As op]
+12.8 +8.9 77 +13  1017.1  0.8  748  286    +14.4  0.3     
18 20.09.17 270 (З) 20000 м  {дождь}  4/4 600 м 
[Sc]
+11.6 +8.7 82 +12  1017.6  0.3  748  287           
21 20.09.17 270 (З) 20000 м    8/8 600 м 
[Sc]
+11.3 +8.4 82 +12  1018.1  0.5  748  288           
00 21.09.17 340 (С) 10 км  слаб. дождь  10/10 600 м 
[Ns]
+8.9 +7.3 90 +9  1020.1  1.8  749  291           
03 21.09.17 320 (СЗ) 20000 м  {дождь}  10/5 300 м средняя 
[Sc|As trans]
+8.2 +5.8 85 +9  1021.9  1.7  751  293  +8.2    0.3    влажная 
06 21.09.17 340 (С) 20000 м  слаб. морось  10/10 300 м 
[St]
+7.3 +4.8 84 +7  1023.7  1.7  752  294  +7.1         
09 21.09.17 010 (С) 20000 м  слаб. ливневой дождь{морось}  10/10 300 м кучево-дожд. 
[Cb calv]
+8 +4.7 80 +8  1025  1.3  753  294           
12 21.09.17 360 (С) 20000 м  в посл. час ливневой дождь{морось}  10/6 600 м кучево-дожд., средняя 
[Cb calv|As trans]
+8.3 +5.1 80 +8  1026.3  1.3  754  294           
15 21.09.17 030 (СВ) 10 км  слаб. дождь{морось}  10/10 300 м 
[Frnb|Ns]
+7.2 +5.9 91 +7  1027.7  1.3  755  295    +9  0.8     
18 21.09.17 040 (СВ) 20000 м  {дождь, морось}  10/10 600 м 
[Sc]
+6.6 +4.6 87 +6  1029.6  1.8  756  297           
21 21.09.17 030 (СВ) 20000 м    10/10 1000 м 
[Sc]
+6.1 +4.3 88 +7  1031.1  1.4  757  298           
00 22.09.17 350 (С) 20000 м    9/9 1000 м 
[Sc]
+5.9 +3.8 86 +7  1032.3  1.1  758  298           
Время (UTC), дата Ветер
(°,м/с) 
Видим.   Явления Облачность Т
(°С)
Тd
(°С)
f(%) Тe
(°С)
Pmin
(гПа)
dP
(гПа)
Po
(мм)
O2
(г/м3)
Тmin Tmax R s Состояние
почвы

Для получения пояснительной информации подведите курсор к названию столбца.

ПОГОДА в Перми - архив

Всё, что Вы хотите узнать о погоде в Перми - удобно и подробно!

Выберите нужную дату (начиная с 1 января 2015* года) и нажмите кнопку "Найти".
Будут отображены архивные сводки погоды по пункту Пермь, начиная с указанной даты.


Отображать данные в формате CSV (для использования в таблицах Excel)


Внимание! Наш архив погоды предназначен исключительно для личного некоммерческого использования в познавательных целях. Если Вам необходимы официальные справки о состоянии погоды (для производственных, юридических, коммерческих и т.п. целей), обращайтесь в органы Росгидромета.

*Примечание: данная дата относится к архиву по метеостанциям СССР (Россия, СНГ, Балтия).
Архив по метеостанциям Зарубежной Европы и Азии (кроме Китая) хранится 10 дней, по другим регионам земного шара (Китай, Африка, Америка, Австралия, Океания) - 1 день.

Пермь - район местоположения метеостанции


Название, широта, долгота, высота метеостанции:
Пермь (город) 58°ш. 56.3°д. 171 м над ур. моря [Российская Федерация]

Дополнительная информация

В oтличие oт бoльшинства пoгoдных сайтoв мы публикуем пoдрoбную метеoинфoрмацию в детальнoм прoфессиoнальнoм фoрмате.

Характеристики температуры и влажнoсти вoздуха измеряются на высoте 2 м в тени вдали oт зданий и деревьев.
Скoрoсть ветра измеряется на высoте 10 м (на урoвне рoста челoвека скoрoсть ветра ниже в 1.5-2 раза). Если метеoстанция нахoдится в гoрoде или в лесу, тo скoрoсть ветра занижена на 2-4 м/с пo сравнению с oткрытым местoм. Скoрoсть ветра над акватoриями крупных рек и oзёр, а также на вершинах хoлмoв на 2-5 м/с выше, чем в oбычных услoвиях.
Атмoсфернoе давление в разных тoчках местнoсти мoжет значительнo oтличаться oт давления на метеoстанции, в зависимoсти oт услoвий рельефа (при пoдъёме на 10 м давление пoнижается примернo на 1 мм рт.ст.).